| time (UTC) | temp F | wind direction | speed MPH | gust MPH | rain 1hr in | rain 24hr in | rain mn in | humidity % | barometer mb |
| 20260510191539 | 83 | 173 | 1.0 | 5.0 | 0.00 | 0.04 | 0.01 | 65 | 1015.7 |
| 20260510190048 | 83 | 140 | 3.0 | 5.0 | 0.00 | 0.04 | 0.01 | 65 | 1015.7 |
| 20260510184547 | 82 | 194 | 1.0 | 8.0 | 0.00 | 0.04 | 0.01 | 67 | 1016.2 |
| 20260510183034 | 82 | 275 | 1.0 | 8.0 | 0.00 | 0.04 | 0.01 | 68 | 1016.2 |
| 20260510181551 | 80 | 264 | 2.0 | 8.0 | 0.00 | 0.04 | 0.01 | 68 | 1016.4 |
| 20260510180046 | 81 | 16 | 4.0 | 8.0 | 0.00 | 0.04 | 0.01 | 68 | 1016.6 |
| 20260510174540 | 80 | 38 | 4.0 | 7.0 | 0.00 | 0.06 | 0.01 | 70 | 1016.6 |
| 20260510173037 | 79 | 269 | 1.0 | 8.0 | 0.00 | 0.06 | 0.01 | 74 | 1016.7 |
| 20260510171550 | 79 | 5 | 2.0 | 6.0 | 0.00 | 0.06 | 0.01 | 73 | 1017.0 |
| 20260510170035 | 79 | 10 | 3.0 | 8.0 | 0.00 | 0.06 | 0.01 | 71 | 1017.3 |
| 20260510164535 | 79 | 96 | 1.0 | 4.0 | 0.00 | 0.16 | 0.01 | 72 | 1017.4 |
| 20260510163039 | 77 | 5 | 1.0 | 5.0 | 0.00 | 0.16 | 0.01 | 74 | 1017.2 |
| 20260510161536 | 77 | 321 | 1.0 | 7.0 | 0.00 | 0.16 | 0.01 | 74 | 1017.1 |
| 20260510160043 | 77 | 350 | 2.0 | 5.0 | 0.00 | 0.16 | 0.01 | 79 | 1017.2 |
| 20260510154600 | 76 | 318 | 2.0 | 5.0 | 0.00 | 0.49 | 0.01 | 78 | 1017.1 |
| 20260510153048 | 75 | 324 | 2.0 | 4.0 | 0.00 | 0.49 | 0.01 | 81 | 1017.1 |
| 20260510151535 | 74 | 0 | 0.0 | 3.0 | 0.00 | 0.49 | 0.01 | 83 | 1017.0 |
| 20260510150036 | 73 | 331 | 1.0 | 3.0 | 0.00 | 0.49 | 0.01 | 85 | 1017.2 |
| 20260510144548 | 73 | 330 | 1.0 | 4.0 | 0.00 | 1.20 | 0.01 | 86 | 1017.3 |
| 20260510143035 | 72 | 171 | 2.0 | 5.0 | 0.00 | 1.20 | 0.01 | 89 | 1017.4 |
| 20260510141533 | 71 | 69 | 0.0 | 2.0 | 0.00 | 1.20 | 0.01 | 94 | 1017.3 |
| 20260510140032 | 69 | 0 | 0.0 | 4.0 | 0.00 | 1.20 | 0.01 | 94 | 1017.1 |
| 20260510134605 | 69 | 0 | 0.0 | 3.0 | 0.00 | 1.43 | 0.01 | 94 | 1016.9 |
| 20260510133034 | 67 | 0 | 0.0 | 3.0 | 0.00 | 1.43 | 0.01 | 94 | 1016.8 |
| 20260510131536 | 67 | 0 | 0.0 | 2.0 | 0.00 | 1.43 | 0.01 | 94 | 1016.8 |
| 20260510130035 | 66 | 0 | 0.0 | 2.0 | 0.00 | 1.43 | 0.01 | 94 | 1016.6 |
| 20260510124542 | 65 | 0 | 0.0 | 0.0 | 0.00 | 1.43 | 0.01 | 94 | 1016.4 |
| 20260510123036 | 64 | 0 | 0.0 | 0.0 | 0.00 | 1.43 | 0.01 | 94 | 1016.2 |
| 20260510121535 | 64 | 0 | 0.0 | 1.0 | 0.00 | 1.43 | 0.01 | 94 | 1015.9 |
| 20260510120034 | 63 | 0 | 0.0 | 0.0 | 0.00 | 1.43 | 0.01 | 94 | 1015.7 |
| 20260510114530 | 63 | 0 | 0.0 | 0.0 | 0.01 | 1.44 | 0.01 | 94 | 1015.5 |
| 20260510113036 | 63 | 0 | 0.0 | 0.0 | 0.01 | 1.44 | 0.01 | 94 | 1015.4 |
| 20260510111543 | 63 | 0 | 0.0 | 0.0 | 0.01 | 1.44 | 0.01 | 94 | 1015.2 |
| 20260510110037 | 63 | 0 | 0.0 | 0.0 | 0.01 | 1.44 | 0.01 | 94 | 1014.9 |
| 20260510104550 | 63 | 0 | 0.0 | 0.0 | 0.00 | 1.43 | 0.00 | 94 | 1014.8 |
| 20260510103034 | 63 | 0 | 0.0 | 0.0 | 0.00 | 1.43 | 0.00 | 94 | 1014.5 |
| 20260510101539 | 64 | 0 | 0.0 | 0.0 | 0.00 | 1.43 | 0.00 | 94 | 1014.4 |
| 20260510100040 | 64 | 0 | 0.0 | 0.0 | 0.00 | 1.43 | 0.00 | 94 | 1014.1 |
| 20260510094536 | 64 | 0 | 0.0 | 1.0 | 0.00 | 1.44 | 0.00 | 94 | 1014.1 |
| 20260510093036 | 64 | 0 | 0.0 | 0.0 | 0.00 | 1.44 | 0.00 | 94 | 1014.0 |
| 20260510091536 | 64 | 0 | 0.0 | 0.0 | 0.00 | 1.44 | 0.00 | 94 | 1013.9 |
| 20260510090040 | 64 | 0 | 0.0 | 0.0 | 0.00 | 1.44 | 0.00 | 93 | 1013.8 |
| 20260510084547 | 64 | 0 | 0.0 | 2.0 | 0.00 | 1.47 | 0.00 | 94 | 1013.9 |
| 20260510083042 | 64 | 0 | 0.0 | 1.0 | 0.00 | 1.47 | 0.00 | 94 | 1013.8 |
| 20260510081537 | 64 | 0 | 0.0 | 2.0 | 0.00 | 1.47 | 0.00 | 93 | 1013.5 |
| 20260510080034 | 65 | 0 | 0.0 | 0.0 | 0.00 | 1.47 | 0.00 | 93 | 1013.2 |
| 20260510074544 | 65 | 0 | 0.0 | 0.0 | 0.00 | 1.48 | 0.00 | 93 | 1013.1 |
| 20260510073047 | 65 | 0 | 0.0 | 0.0 | 0.00 | 1.48 | 0.00 | 93 | 1013.0 |
| 20260510071536 | 65 | 0 | 0.0 | 0.0 | 0.00 | 1.48 | 0.00 | 93 | 1012.8 |
| 20260510070038 | 66 | 0 | 0.0 | 0.0 | 0.00 | 1.48 | 0.00 | 93 | 1012.7 |
| 20260510064531 | 66 | 0 | 0.0 | 0.0 | 0.00 | 1.48 | 0.00 | 93 | 1012.5 |
| 20260510063037 | 66 | 0 | 0.0 | 1.0 | 0.00 | 1.48 | 0.00 | 93 | 1012.8 |
| 20260510061545 | 66 | 0 | 0.0 | 2.0 | 0.00 | 1.48 | 0.00 | 93 | 1012.9 |
| 20260510060042 | 66 | 0 | 0.0 | 0.0 | 0.00 | 1.48 | 0.00 | 93 | 1013.6 |
| 20260510054535 | 66 | 0 | 0.0 | 0.0 | 0.00 | 1.48 | 0.00 | 93 | 1013.7 |
| 20260510053036 | 67 | 0 | 0.0 | 0.0 | 0.00 | 1.48 | 0.00 | 93 | 1014.0 |
| 20260510051541 | 67 | 0 | 0.0 | 0.0 | 0.00 | 1.48 | 0.00 | 93 | 1014.0 |
| 20260510050038 | 66 | 0 | 0.0 | 3.0 | 0.00 | 1.48 | 0.00 | 93 | 1013.3 |
| 20260510044536 | 66 | 0 | 0.0 | 2.0 | 0.00 | 1.48 | 1.48 | 93 | 1013.2 |
| 20260510043035 | 66 | 0 | 0.0 | 2.0 | 0.00 | 1.48 | 1.48 | 93 | 1014.0 |
| 20260510041540 | 66 | 0 | 0.0 | 1.0 | 0.00 | 1.48 | 1.48 | 93 | 1014.3 |
| 20260510040040 | 66 | 0 | 0.0 | 0.0 | 0.00 | 1.48 | 1.48 | 93 | 1014.5 |
| 20260510034535 | 66 | 0 | 0.0 | 0.0 | 0.00 | 1.49 | 1.48 | 93 | 1014.1 |
| 20260510033034 | 67 | 0 | 0.0 | 0.0 | 0.00 | 1.49 | 1.48 | 93 | 1014.1 |
| 20260510031542 | 67 | 0 | 0.0 | 0.0 | 0.00 | 1.49 | 1.48 | 93 | 1014.2 |
| 20260510030041 | 67 | 0 | 0.0 | 0.0 | 0.00 | 1.49 | 1.48 | 93 | 1013.9 |
| 20260510024539 | 67 | 0 | 0.0 | 0.0 | 0.00 | 1.50 | 1.48 | 93 | 1013.5 |
| 20260510023042 | 67 | 0 | 0.0 | 2.0 | 0.00 | 1.50 | 1.48 | 93 | 1013.5 |
| 20260510021537 | 67 | 0 | 0.0 | 1.0 | 0.00 | 1.50 | 1.48 | 93 | 1014.0 |
| 20260510020035 | 67 | 0 | 0.0 | 0.0 | 0.01 | 1.50 | 1.48 | 93 | 1013.7 |
| 20260510014533 | 67 | 0 | 0.0 | 0.0 | 0.01 | 1.52 | 1.48 | 93 | 1013.6 |
| 20260510013047 | 67 | 0 | 0.0 | 0.0 | 0.01 | 1.52 | 1.48 | 93 | 1013.9 |
| 20260510011557 | 67 | 0 | 0.0 | 0.0 | 0.01 | 1.52 | 1.48 | 93 | 1013.7 |
| 20260510010034 | 67 | 0 | 0.0 | 0.0 | 0.00 | 1.51 | 1.47 | 93 | 1014.0 |
| 20260510004536 | 67 | 0 | 0.0 | 3.0 | 0.00 | 1.52 | 1.47 | 92 | 1013.7 |
| 20260510003033 | 67 | 0 | 0.0 | 0.0 | 0.01 | 1.52 | 1.47 | 92 | 1013.0 |
| 20260510001540 | 67 | 0 | 0.0 | 2.0 | 0.01 | 1.52 | 1.47 | 92 | 1013.0 |
| 20260510000037 | 67 | 0 | 0.0 | 3.0 | 0.01 | 1.52 | 1.47 | 92 | 1013.0 |
| 20260509234539 | 68 | 0 | 0.0 | 1.0 | 0.01 | 1.52 | 1.47 | 92 | 1012.7 |
| 20260509233036 | 68 | 97 | 1.0 | 5.0 | 0.00 | 1.51 | 1.46 | 92 | 1012.4 |
| 20260509231551 | 68 | 0 | 0.0 | 2.0 | 0.00 | 1.51 | 1.46 | 91 | 1012.3 |
| 20260509230041 | 68 | 47 | 1.0 | 4.0 | 0.00 | 1.51 | 1.46 | 91 | 1012.9 |
| 20260509224537 | 68 | 0 | 0.0 | 1.0 | 0.00 | 1.54 | 1.46 | 91 | 1013.0 |
| 20260509223035 | 68 | 0 | 0.0 | 1.0 | 0.00 | 1.54 | 1.46 | 91 | 1012.8 |
| 20260509221533 | 68 | 0 | 0.0 | 1.0 | 0.00 | 1.54 | 1.46 | 91 | 1012.3 |
| 20260509220041 | 68 | 344 | 2.0 | 5.0 | 0.00 | 1.54 | 1.46 | 90 | 1012.6 |
| 20260509214536 | 68 | 0 | 0.0 | 3.0 | 0.00 | 1.72 | 1.46 | 91 | 1012.6 |
| 20260509213042 | 68 | 0 | 0.0 | 3.0 | 0.00 | 1.72 | 1.46 | 91 | 1012.4 |
| 20260509211545 | 68 | 309 | 0.0 | 1.0 | 0.01 | 1.72 | 1.46 | 91 | 1012.2 |
| 20260509210040 | 68 | 0 | 0.0 | 0.0 | 0.01 | 1.72 | 1.46 | 91 | 1012.4 |
| 20260509204535 | 68 | 0 | 0.0 | 1.0 | 0.01 | 1.76 | 1.46 | 90 | 1012.4 |
| 20260509203034 | 68 | 339 | 3.0 | 8.0 | 0.01 | 1.76 | 1.46 | 90 | 1012.5 |
| 20260509201535 | 69 | 0 | 1.0 | 8.0 | 0.00 | 1.75 | 1.45 | 89 | 1012.0 |
| 20260509200044 | 70 | 312 | 2.0 | 8.0 | 0.00 | 1.75 | 1.45 | 89 | 1011.7 |
| 20260509194537 | 70 | 116 | 1.0 | 3.0 | 0.00 | 1.75 | 1.45 | 90 | 1010.4 |
| 20260509193035 | 70 | 0 | 1.0 | 6.0 | 0.00 | 1.75 | 1.45 | 90 | 1010.8 |